Flag for Poland Weather past 2 weeks in Lublin, Poland

Now
56 °F

Overcast.


Feels Like: 56 °F
Forecast: 48 / 68 °F
Wind: 3 mph from North

Location: Lublin Radawiec

Current Time: Sep 4, 2015 at 6:35:30 PM

Latest Report: Sep 4, 2015 at 5:00 PM


Visibility: 8 mi

Pressure: 29.94 "Hg

Humidity: 93%

Dew point: 54 °F

Location of LublinLocation

Historic Weather in Lublin — Graph

°F

Lublin temperature yesterday

Maximum temperature yesterday: 69 °F (at 5:00 PM)
Minimum temperature yesterday: 54 °F (at 11:00 PM)
Average temperature yesterday: 61 °F

Past Weeks' High & Low Weather Summary

 TemperatureHumidityPressure
High92 °F (Aug 31, 4:00 PM)99% (Aug 26, 7:00 AM)30.37 "Hg (Aug 26, 7:00 AM)
Low49 °F (Aug 21, 6:00 AM)25% (Sep 1, 4:00 PM)29.70 "Hg (Sep 1, 6:00 PM)
Average68 °F62%30.06 "Hg
* Reported Aug 20 5:00 PM — Sep 4 5:00 PM, Lublin, Weather by CustomWeather, © 2015

Note: Actual official high and low records may vary slightly from our data, if they occured in-between our weather recording intervals... More about our weather records

Advertising

Lublin weather history for previous 24 hours

 ConditionsComfort  
Time TempWeatherWind HumidityBarometerVisibility
5:00 PM
Fri, Sep 4
56 °FOvercast.3 mph93%29.94 "Hg8 mi
4:00 PM56 °FLow clouds.5 mph94%29.94 "Hg7 mi
3:00 PM56 °FLow clouds.6 mph96%29.92 "Hg4 mi
2:00 PM55 °FLight rain. Low clouds.5 mph97%29.90 "Hg2 mi
1:00 PM56 °FLight rain. Low clouds.2 mph97%29.87 "Hg1 mi
12:00 PM56 °FLight rain. Low clouds.1 mph96%29.86 "Hg2 mi
11:00 AM56 °FLow clouds.2 mph95%29.86 "Hg6 mi
10:00 AM56 °FLow clouds.3 mph95%29.85 "Hg6 mi
9:00 AM56 °FRain showers. Overcast.2 mph91%29.88 "Hg3 mi
8:00 AM56 °FOvercast.3 mph92%29.88 "Hg7 mi
7:00 AM55 °FLight rain. Overcast.2 mph94%29.90 "Hg4 mi
6:00 AM54 °FThundershowers. Overcast.2 mph90%29.95 "Hg4 mi
5:00 AM56 °FOvercast.2 mph77%29.91 "Hg17 mi
4:00 AM55 °FOvercast.1 mph78%29.94 "Hg16 mi
3:00 AM55 °FOvercast.1 mph79%29.96 "Hg16 mi
2:00 AM55 °FClear.1 mph77%29.97 "Hg19 mi
1:00 AM52 °FPassing clouds.1 mph85%29.99 "Hg11 mi
12:00 AM52 °FPassing clouds.No wind86%30.01 "Hg11 mi
11:00 PM
Thu, Sep 3
54 °FPassing clouds.1 mph82%29.99 "Hg12 mi
10:00 PM55 °FPassing clouds.1 mph82%30.00 "Hg11 mi
9:00 PM56 °FOvercast.No wind77%30.01 "Hg11 mi
8:00 PM60 °FOvercast.1 mph70%30.00 "Hg12 mi
7:00 PM64 °FOvercast.No wind58%29.99 "Hg16 mi
6:00 PM67 °FPartly sunny.1 mph49%29.98 "Hg22 mi
Weather by CustomWeather, © 2015

See weather overviewHow to use our weather pages